Location: *
(41.3833°S, 177.8333°W)
Time: 21:00:24
(UTC+00:00)

NOAA 6 - Pass Details

Date: 01 April 2020
Orbit: 773 x 786 km, 98.7° (Epoch: 31 May)

Event Time Altitude Azimuth Distance (km) Brightness Sun altitude
Rises 17:02:08 0° 2° (N) 3,251 7.2 -13.2°
Reaches altitude 10° 17:04:29 10° 358° (N) 2,334 6.4 -12.7°
Maximum altitude 17:09:31 54° 280° (W) 962 4.2 -11.8°
Drops below altitude 10° 17:14:39 10° 203° (SSW) 2,373 6.3 -10.8°
Sets 17:17:04 0° 198° (SSW) 3,312 7.1 -10.4°
